This is the latest recevied weather packets stored in our database for station/object G4KVI. If no packets are shown the sender has not sent any weather packets the latest 10 day(s).
| Time | Temp. | Humidity | Pressure | Rain* | Wind** | Luminosity | Snow |
|---|---|---|---|---|---|---|---|
| 1778055603 | 10° C | 64% | 1016.4 hPa | 0 mm | - | 242 W/m² | - |
| 1778055304 | 9.44° C | 64% | 1016.4 hPa | 0 mm | - | 309 W/m² | - |
| 1778055003 | 9.44° C | 66% | 1016.1 hPa | 0 mm | - | 233 W/m² | - |
| 1778054703 | 8.89° C | 67% | 1016.3 hPa | 0 mm | - | 211 W/m² | - |
| 1778054403 | 8.89° C | 68% | 1016.2 hPa | 0 mm | - | 170 W/m² | - |
| 1778054103 | 8.89° C | 67% | 1016.4 hPa | 0 mm | - | 170 W/m² | - |
| 1778053804 | 8.89° C | 67% | 1016.1 hPa | 0 mm | - | 174 W/m² | - |
| 1778053504 | 8.89° C | 67% | 1016.2 hPa | 0 mm | - | 176 W/m² | - |
| 1778053204 | 8.89° C | 68% | 1016.2 hPa | 0 mm | - | 187 W/m² | - |
| 1778052904 | 8.89° C | 68% | 1016.3 hPa | 0 mm | - | 197 W/m² | - |
| 1778052603 | 8.89° C | 68% | 1016.2 hPa | 0 mm | - | 194 W/m² | - |
| 1778052304 | 8.89° C | 68% | 1016.2 hPa | 0 mm | - | 200 W/m² | - |
| 1778051703 | 8.33° C | 69% | 1016.2 hPa | 0 mm | - | 168 W/m² | - |
| 1778051403 | 8.33° C | 71% | 1016.1 hPa | 0 mm | - | 142 W/m² | - |
| 1778051104 | 8.33° C | 71% | 1016.1 hPa | 0 mm | - | 134 W/m² | - |
| 1778050804 | 8.33° C | 72% | 1016.1 hPa | 0 mm | - | 120 W/m² | - |
| 1778050503 | 8.33° C | 72% | 1016 hPa | 0 mm | - | 113 W/m² | - |
| 1778050203 | 8.33° C | 73% | 1015.9 hPa | 0 mm | - | 110 W/m² | - |
| 1778049903 | 8.33° C | 74% | 1015.9 hPa | 0 mm | - | 102 W/m² | - |
| 1778049603 | 8.33° C | 74% | 1015.9 hPa | 0 mm | - | 92 W/m² | - |
| 1778049303 | 8.33° C | 74% | 1016 hPa | 0 mm | - | 81 W/m² | - |
| 1778049003 | 8.33° C | 74% | 1015.8 hPa | 0 mm | - | 73 W/m² | - |
| 1778048703 | 8.33° C | 75% | 1015.9 hPa | 0 mm | - | 64 W/m² | - |
| 1778048403 | 8.33° C | 75% | 1015.9 hPa | 0 mm | - | 54 W/m² | - |
| 1778048103 | 8.33° C | 75% | 1015.8 hPa | 0 mm | - | 46 W/m² | - |
* Rain latest hour (hover to see other rain measurements)
** Current wind speed in m/s (hover to see current wind gust speed)